User: anonymous   Login
Location: Unspecified
(0.0000°N, 0.0000°E)
Time: 07:13:44
(UTC+00:00)
Language:

Picosat 4 - Orbit

View from above orbital plane
View from above orbital plane
View from above satellite
View from above satellite

Ground track
Ground track

The orbit data is extracted from the following two-line orbital elements,

1 26092U 00004K   17178.08098689 +.00000092 +00000-0 +44977-4 0  9991
2 26092 100.1984 228.5483 0034401 148.9368 211.3859 14.43281211913141
Epoch (UTC): 27 June 2017 01:56:37
Eccentricity: 0.0034401
inclination: 100.1984°
perigee height: 723 km
apogee height: 772 km
right ascension of ascending node: 228.5483°
argument of perigee: 148.9368°
revolutions per day: 14.43281211
mean anomaly at epoch: 211.3859°
orbit number at epoch: 91314

The dashed part of the orbit path shows where the satellite is in the earth's shadow,  

DLR